Regional Weather Roundup
Issued by NWS

Home | Current Version | Previous Version | Graphics & Text | Print | Product List | Glossary Off
Versions: 1 2 3 4 5 6 7 8 9 10 11 12 13 14 15 16 17 18 19 20 21 22 23 24 25 26 27 28 29 30 31 32 33 34 35 36 37 38 39 40 41 42 43 44 45 46 47 48 49 50

000
ASUS43 KDMX 212207
RWRIA

WEATHER ROUNDUP FOR IOWA
NATIONAL WEATHER SERVICE DES MOINES IA
500 PM CDT THU MAY 21 2015

NOTE: "FAIR" INDICATES FEW OR NO CLOUDS BELOW 12,000 FEET WITH NO
SIGNIFICANT WEATHER AND/OR OBSTRUCTIONS TO VISIBILITY.

* - THESE STATIONS ARE NOT NWS STATIONS...THUS NOT UNDER NWS
QUALITY CONTROL.  THEY ALSO DO NOT REPORT WEATHER SUCH
AS PRECIPITATION OR FOG.

IAZ001>003-012>014-020>022-031>034-043>046-212300-
   NORTHWEST IOWA

CITY           SKY/WX    TMP DP  RH WIND       PRES   REMARKS
CARROLL *      MOSUNNY   73  36  25 NW21      30.12S
CHEROKEE *     MOSUNNY   73  37  27 NW10G17   30.11F
DENISON *      SUNNY     73  37  27 W15G24    30.12F
LE MARS *      MOSUNNY   73  36  25 NW12G24   30.13F
ORANGE CITY *  MOSUNNY   72  37  28 NW17G23   30.12S
SHELDON *      MOSUNNY   75  30  19 NW23G29   30.09F
SIOUX CITY     SUNNY     76  35  22 NW15G22   30.14F
SPENCER        MOSUNNY   74  36  25 NW20G29   30.09S
STORM LAKE *   SUNNY     73  36  25 NW20G26   30.12S
$$

IAZ055>058-069>071-079>083-090>094-212300-
   SOUTHWEST IOWA

CITY           SKY/WX    TMP DP  RH WIND       PRES   REMARKS
ATLANTIC *     SUNNY     72  37  28 NW6G17    30.15F
AUDUBON *      SUNNY     73  34  23 NW9       30.15F
CLARINDA *     SUNNY     72  41  33 W9G15     30.19F
COUNCIL BLFS * SUNNY     72  43  35 NW9       30.17F
CRESTON *      SUNNY     70  43  37 W15       30.16F
HARLAN  *      SUNNY     72  36  26 NW9G17    30.18F
LAMONI         SUNNY     72  46  39 W13       30.16F
RED OAK *      SUNNY     72  41  33 VRB7      30.17F
SHENANDOAH *   SUNNY     72  41  33 W8G15     30.19F
$$

IAZ047>049-059>061-072>074-084-212300-
   CENTRAL IOWA

CITY           SKY/WX    TMP DP  RH WIND       PRES   REMARKS
AMES           MOSUNNY   76  39  26 NW13G26   30.07F
ANKENY *       SUNNY     75  39  27 NW18G26   30.08F
CHARITON *     SUNNY     73  41  31 W15G22    30.12F
DES MOINES     MOSUNNY   76  35  22 NW15G24   30.09F
GRINNELL*      PTSUNNY   75  39  27 NW20G25   30.07F
KNOXVILLE *    MOSUNNY   73  37  27 NW20      30.08F
MARSHALLTOWN   MOSUNNY   72  40  31 NW21G28   30.04F
PELLA *        SUNNY     73  48  40 W13       30.09F
PERRY *          N/A     73  36  25 NW15      30.10F
$$

IAZ004>006-015-016-023>025-035-036-212300-
   NORTH CENTRAL IOWA

CITY           SKY/WX    TMP DP  RH WIND       PRES   REMARKS
ALGONA *       SUNNY     73  32  21 N17G28    30.07S
CLARION *      SUNNY     75  34  22 NW26G37   30.05F
ESTHERVILLE    SUNNY     73  31  21 NW21G36   30.07F
FORT DODGE *   PTSUNNY   73  43  33 NW9G17    30.08S
MASON CITY     SUNNY     73  19  13 NW24G36   30.05S
FOREST CITY *  SUNNY     70  27  19 NW22G28   30.04F
IOWA FALLS *     N/A     75  34  22 NW21G32   30.06S
$$

IAZ007>011-017>019-026>030-037>042-050>054-066-212300-
   NORTHEAST IOWA

CITY           SKY/WX    TMP DP  RH WIND       PRES   REMARKS
CEDAR RAPIDS   MOSUNNY   70  44  39 W15G21    30.03F
CHARLES CITY * SUNNY     73  27  17 NW22G29   30.02F
CLINTON *      SUNNY     72  37  28 W14G20    30.07F
DECORAH *      SUNNY     72  28  20 NW13G25   29.99S
DUBUQUE        SUNNY     69  44  40 W14G22    30.03F
MONTICELLO *   MOSUNNY   72  45  37 SW10G18   30.03F
OELWEIN *      MOSUNNY   73  37  27 NW18G29   30.01F
WATERLOO       MOSUNNY   73  36  25 W18G29    30.01F
$$

IAZ064-065-067-068-078-212300-
   EAST CENTRAL IOWA

CITY           SKY/WX    TMP DP  RH WIND       PRES   REMARKS
DAVENPORT      SUNNY     72  37  28 W15       30.06F
IOWA CITY      SUNNY     73  40  30 NW10      30.06F
MT. PLEASANT * SUNNY     72  37  28 W7        30.10F
MUSCATINE *    SUNNY     73  41  31 W10G16    30.07F
QUAD CITIES    SUNNY     71  38  29 W14G21    30.06F
$$

IAZ062-063-075>077-085>089-095>099-212300-
   SOUTHEAST IOWA

CITY           SKY/WX    TMP DP  RH WIND       PRES   REMARKS
BURLINGTON     SUNNY     70  44  39 W9        30.10F
FAIRFIELD *    SUNNY     72  41  33 W8        30.09F
FORT MADISON * SUNNY     70  45  40 NW6       30.11F
KEOKUK *       SUNNY     70  45  40 W9        30.11F
OSKALOOSA *      N/A     73  39  29 W10G21    30.08F
CENTERVILLE *  SUNNY     70  70 100 W15       30.14F
OTTUMWA        SUNNY     73  43  33 W15       30.07F
WASHINGTON *   SUNNY     72  41  33 W10G16    30.09F
$$

ABBREVIATIONS USED IN REMARKS
   TC - TEMPERATURES IN CELSIUS
  WCI - WIND CHILL INDEX
   HX - HEAT INDEX
  VSB - VISIBILITY
$$




USA.gov is the U.S. government's official web portal to all federal, state and local government web resources and services.